Woodlawn, VA

6:54 PM EDT on August 24, 2016 (GMT -0400)
Twin County

Weather History for KHLX - November, 2013

Change the Weather History Date:

Saturday, November 23, 2013

  Actual Average (KBLF) Record (KBLF)
Temperature  
Mean Temperature 42 °F 44 °F  
Max Temperature 55 °F 53 °F 67 °F (2003)
Min Temperature 30 °F 36 °F 9 °F (1970)
Degree Days  
Heating Degree Days 22 21  
Month to date heating degree days 385  
Since 1 July heating degree days 749  
Cooling Degree Days 0 0  
Month to date cooling degree days 0  
Year to date cooling degree days 851  
Moisture  
Dew Point 34 °F    
Average Humidity 69    
Maximum Humidity 94    
Minimum Humidity 36    
Precipitation  
Precipitation 0.00 in 0.09 in 1.32 in (1961)
Month to date precipitation 2.03  
Year to date precipitation 36.06  
Snow  
Snow 0.00 in - - ()
Month to date snowfall  
Since 1 July snowfall  
Since 1 September snowfall  
Snow Depth -    
Sea Level Pressure  
Sea Level Pressure 30.16 in    
Wind  
Wind Speed 13 mph (NW)    
Max Wind Speed 26 mph    
Max Gust Speed 38 mph    
Visibility 10 miles    
Events      
T = Trace of Precipitation, MM = Missing Value Source: NWS Daily Summary

Daily Weather History Graph

Daily Weather History Graph

Search for Another Location

Airport or City:

Trip Planner

Search our weather history database for the weather conditions in past years. The results will help you decide how hot, cold, wet, or windy it might be!

Date:

Astronomy

Nov. 23, 2013 Rise Set
Actual Time 7:09 AM EST 5:09 PM EST
Civil Twilight 6:41 AM EST 5:37 PM EST
Nautical Twilight 6:10 AM EST 6:09 PM EST
Astronomical Twilight 5:39 AM EST 6:40 PM EST
Moon 10:33 PM EST (11/23) 11:28 AM EST (11/23)
Length of Visible Light 10h 55m
Length of Day
9h 59m
Waning Gibbous, 70% of the Moon is Illuminated
Nov 23
Waning Gibbous
Nov 25
Last Quarter
Dec 2
New
Dec 9
First Quarter
Dec 17
Full

Hourly Weather History & Observations

Time (EST) Temp. Windchill Dew Point Humidity Pressure Visibility Wind Dir Wind Speed Gust Speed Precip Events Conditions
12:15 AM 55.4 °F - 53.6 °F 94% 30.15 in 10.0 mi WNW 6.9 mph - N/A   Mostly Cloudy
12:35 AM 55.4 °F - 53.6 °F 94% 30.16 in 10.0 mi NW 11.5 mph - N/A   Overcast
12:55 AM 55.4 °F - 53.6 °F 94% 30.15 in 10.0 mi NW 10.4 mph - N/A   Mostly Cloudy
1:15 AM 55.4 °F - 53.6 °F 94% 30.16 in 10.0 mi NW 12.7 mph - N/A   Scattered Clouds
1:35 AM 55.4 °F - 53.6 °F 94% 30.16 in 10.0 mi NW 12.7 mph - N/A   Overcast
1:55 AM 53.6 °F - 51.8 °F 94% 30.16 in 10.0 mi NW 12.7 mph 19.6 mph N/A   Mostly Cloudy
2:15 AM 53.6 °F - 50.0 °F 88% 30.16 in 10.0 mi WNW 8.1 mph 16.1 mph N/A   Mostly Cloudy
2:35 AM 53.6 °F - 50.0 °F 88% 30.16 in 10.0 mi NW 4.6 mph - N/A   Overcast
2:55 AM 53.6 °F - 48.2 °F 82% 30.16 in 10.0 mi NNW 12.7 mph 18.4 mph N/A   Overcast
3:15 AM 51.8 °F - 48.2 °F 88% 30.16 in 10.0 mi NW 13.8 mph 17.3 mph N/A   Overcast
3:35 AM 51.8 °F - 48.2 °F 88% 30.15 in 10.0 mi NW 4.6 mph - N/A   Overcast
3:55 AM 51.8 °F - 48.2 °F 88% 30.15 in 10.0 mi NW 11.5 mph - N/A   Overcast
4:15 AM 50.0 °F - 46.4 °F 87% 30.15 in 10.0 mi NW 11.5 mph - N/A   Overcast
4:35 AM 48.2 °F - 46.4 °F 93% 30.15 in 10.0 mi NNW 11.5 mph - N/A   Overcast
4:55 AM 48.2 °F - 46.4 °F 93% 30.15 in 10.0 mi NNW 10.4 mph - N/A   Overcast
5:15 AM 48.2 °F - 46.4 °F 93% 30.15 in 10.0 mi NW 11.5 mph 17.3 mph N/A   Overcast
5:35 AM 48.2 °F - 46.4 °F 93% 30.15 in 10.0 mi NW 13.8 mph - N/A   Overcast
5:55 AM 48.2 °F - 44.6 °F 87% 30.16 in 10.0 mi NW 15.0 mph - N/A   Overcast
6:15 AM 48.2 °F - 44.6 °F 87% 30.17 in 10.0 mi NW 13.8 mph - N/A   Overcast
6:35 AM 48.2 °F - 44.6 °F 87% 30.17 in 10.0 mi NW 16.1 mph 21.9 mph N/A   Overcast
6:55 AM 48.2 °F - 44.6 °F 87% 30.17 in 10.0 mi NW 16.1 mph 19.6 mph N/A   Overcast
7:15 AM 46.4 °F 40.4 °F 42.8 °F 87% 30.18 in 10.0 mi NW 13.8 mph - N/A   Scattered Clouds
7:35 AM 46.4 °F 41.9 °F 42.8 °F 87% 30.18 in 10.0 mi WNW 9.2 mph - N/A   Clear
7:55 AM 46.4 °F 41.5 °F 42.8 °F 87% 30.19 in 10.0 mi NW 10.4 mph - N/A   Scattered Clouds
8:15 AM 46.4 °F 41.5 °F 42.8 °F 87% 30.20 in 10.0 mi NW 10.4 mph - N/A   Overcast
8:35 AM 46.4 °F 40.1 °F 42.8 °F 87% 30.20 in 10.0 mi WNW 15.0 mph - N/A   Overcast
8:55 AM 46.4 °F 41.9 °F 42.8 °F 87% 30.20 in 10.0 mi NW 9.2 mph 17.3 mph N/A   Overcast
9:15 AM 46.4 °F 40.4 °F 41.0 °F 81% 30.21 in 10.0 mi WNW 13.8 mph 17.3 mph N/A   Overcast
9:35 AM 44.6 °F 38.1 °F 41.0 °F 87% 30.21 in 10.0 mi NNW 13.8 mph - N/A   Overcast
9:55 AM 44.6 °F 37.2 °F 39.2 °F 81% 30.22 in 10.0 mi NNW 17.3 mph 21.9 mph N/A   Overcast
10:15 AM 44.6 °F 39.7 °F 39.2 °F 81% 30.21 in 10.0 mi NNW 9.2 mph - N/A   Mostly Cloudy
10:35 AM 44.6 °F 38.4 °F 39.2 °F 81% 30.20 in 10.0 mi NNW 12.7 mph 16.1 mph N/A   Mostly Cloudy
10:55 AM 44.6 °F 37.2 °F 37.4 °F 76% 30.20 in 10.0 mi NW 17.3 mph - N/A   Scattered Clouds
11:15 AM 44.6 °F 38.4 °F 37.4 °F 76% 30.19 in 10.0 mi NNW 12.7 mph 19.6 mph N/A   Scattered Clouds
11:35 AM 46.4 °F 41.5 °F 37.4 °F 71% 30.19 in 10.0 mi NNW 10.4 mph 16.1 mph N/A   Scattered Clouds
11:55 AM 44.6 °F 37.8 °F 37.4 °F 76% 30.18 in 10.0 mi NW 15.0 mph - N/A   Scattered Clouds
12:15 PM 44.6 °F 38.1 °F 35.6 °F 71% 30.17 in 10.0 mi NW 13.8 mph - N/A   Scattered Clouds
12:35 PM 46.4 °F 41.5 °F 35.6 °F 66% 30.16 in 10.0 mi WNW 10.4 mph 18.4 mph N/A   Clear
12:55 PM 46.4 °F 40.1 °F 35.6 °F 66% 30.16 in 10.0 mi WNW 15.0 mph 18.4 mph N/A   Clear
1:15 PM 44.6 °F 38.8 °F 32.0 °F 61% 30.15 in 10.0 mi NW 11.5 mph 19.6 mph N/A   Clear
1:35 PM 44.6 °F 38.4 °F 30.2 °F 57% 30.15 in 10.0 mi WNW 12.7 mph 23.0 mph N/A   Clear
1:55 PM 44.6 °F 37.4 °F 30.2 °F 57% 30.14 in 10.0 mi WNW 16.1 mph 23.0 mph N/A   Clear
2:15 PM 46.4 °F 39.5 °F 28.4 °F 50% 30.13 in 10.0 mi WNW 17.3 mph 23.0 mph N/A   Clear
2:35 PM 46.4 °F 39.8 °F 26.6 °F 46% 30.13 in 10.0 mi WNW 16.1 mph 23.0 mph N/A   Clear
2:55 PM 46.4 °F 39.8 °F 24.8 °F 43% 30.13 in 10.0 mi NW 16.1 mph 19.6 mph N/A   Clear
3:15 PM 46.4 °F 39.8 °F 21.2 °F 37% 30.13 in 10.0 mi NW 16.1 mph 26.5 mph N/A   Clear
3:35 PM 46.4 °F 40.1 °F 26.6 °F 46% 30.12 in 10.0 mi West 15.0 mph 21.9 mph N/A   Clear
3:55 PM 44.6 °F 37.8 °F 26.6 °F 49% 30.13 in 10.0 mi WNW 15.0 mph 27.6 mph N/A   Clear
4:15 PM 44.6 °F 37.8 °F 26.6 °F 49% 30.13 in 10.0 mi WNW 15.0 mph 21.9 mph N/A   Clear
4:35 PM 44.6 °F 38.4 °F 24.8 °F 46% 30.13 in 10.0 mi WNW 12.7 mph 20.7 mph N/A   Clear
4:55 PM 44.6 °F 37.8 °F 21.2 °F 39% 30.13 in 10.0 mi WNW 15.0 mph 24.2 mph N/A   Clear
5:15 PM 42.8 °F 36.2 °F 19.4 °F 39% 30.14 in 10.0 mi WNW 12.7 mph 21.9 mph N/A   Clear
5:35 PM 42.8 °F 35.4 °F 17.6 °F 36% 30.14 in 10.0 mi WNW 15.0 mph 21.9 mph N/A   Clear
5:55 PM 41.0 °F 32.8 °F 15.8 °F 36% 30.15 in 10.0 mi WNW 16.1 mph 24.2 mph N/A   Clear
6:15 PM 39.2 °F 30.5 °F 17.6 °F 42% 30.15 in 10.0 mi WNW 16.1 mph 28.8 mph N/A   Clear
6:35 PM 39.2 °F 30.2 °F 19.4 °F 45% 30.15 in 10.0 mi WNW 17.3 mph 23.0 mph N/A   Clear
6:55 PM 39.2 °F 30.2 °F 21.2 °F 49% 30.15 in 10.0 mi WNW 17.3 mph 27.6 mph N/A   Clear
7:15 PM 37.4 °F 27.8 °F 23.0 °F 56% 30.14 in 10.0 mi WNW 17.3 mph 26.5 mph N/A   Clear
7:35 PM 37.4 °F 28.5 °F 24.8 °F 60% 30.15 in 10.0 mi NW 15.0 mph 24.2 mph N/A   Clear
7:55 PM 37.4 °F 28.5 °F 21.2 °F 52% 30.16 in 10.0 mi NW 15.0 mph 20.7 mph N/A   Mostly Cloudy
8:15 PM 37.4 °F 28.5 °F 19.4 °F 48% 30.15 in 10.0 mi WNW 15.0 mph 26.5 mph N/A   Scattered Clouds
8:35 PM 35.6 °F 24.0 °F 17.6 °F 48% 30.15 in 10.0 mi NW 23.0 mph 33.4 mph N/A   Scattered Clouds
8:55 PM 35.6 °F 24.8 °F 17.6 °F 48% 30.15 in 10.0 mi NW 19.6 mph 29.9 mph N/A   Clear
9:15 PM 33.8 °F 22.5 °F 17.6 °F 52% 30.15 in 10.0 mi WNW 19.6 mph 32.2 mph N/A   Clear
9:35 PM 33.8 °F 23.9 °F 19.4 °F 56% 30.15 in 10.0 mi WNW 15.0 mph 23.0 mph N/A   Scattered Clouds
9:55 PM 33.8 °F 22.8 °F 17.6 °F 52% 30.16 in 10.0 mi WNW 18.4 mph 27.6 mph N/A   Scattered Clouds
10:15 PM 33.8 °F 23.5 °F 17.6 °F 52% 30.16 in 10.0 mi WNW 16.1 mph 25.3 mph N/A   Mostly Cloudy
10:35 PM 33.8 °F 21.9 °F 17.6 °F 52% 30.17 in 10.0 mi NW 21.9 mph 28.8 mph N/A   Mostly Cloudy
10:55 PM 33.8 °F 23.2 °F 17.6 °F 52% 30.17 in 10.0 mi NW 17.3 mph 29.9 mph N/A   Scattered Clouds
11:15 PM 30.2 °F 15.9 °F 14.0 °F 51% 30.18 in 10.0 mi NW 26.5 mph 38.0 mph N/A   Clear
11:35 PM 30.2 °F 17.1 °F 14.0 °F 51% 30.19 in 10.0 mi NW 21.9 mph 32.2 mph N/A   Scattered Clouds
11:55 PM 30.2 °F 18.1 °F 14.0 °F 51% 30.19 in 10.0 mi WNW 18.4 mph 32.2 mph N/A   Scattered Clouds